View from above orbital plane
|
View from above satellite
|
Ground track
|
The orbit data is extracted from the following two-line orbital elements,
1 19211U 88050B 21018.86636312 .00000073 00000-0 59098-5 0 9998
2 19211 82.5250 55.5191 0023291 113.4120 60.3151 14.83094757740110
Epoch (UTC): | 18 January 2021 20:47:33 |
Eccentricity: | 0.0023291 |
inclination: | 82.5250° |
perigee height: | 603 km |
apogee height: | 636 km |
right ascension of ascending node: | 55.5191° |
argument of perigee: | 113.4120° |
revolutions per day: | 14.83094757 |
mean anomaly at epoch: | 60.3151° |
orbit number at epoch: | 74011 |
The dashed part of the orbit path shows where the satellite is in the earth's shadow,
|
|